When you browse on this site, cookies collect data to enhance your experience and personalize the content and advertising you see.
Visit our Privacy Policy to learn more. By continuing to use the site, you agree to this use of cookies and data.
  • In France
  • List of Countries
  • For 7 days
  • Water Temperature
  • Weather Map
  • Weather Widgets
  • user-avatar
    Login

    Hourly Weather Kalgoorlie

    Today, 22 August, Thursday

    Time Temperature Precipitation Wind Pressure Humidity
    00:00 +12°C° 0 mm 5 mps 736 mmHg 34%
    01:00 +12°C° 0 mm 5 mps 736 mmHg 34%
    02:00 +10°C° 0 mm 5 mps 735 mmHg 34%
    03:00 +10°C° 0 mm 5 mps 735 mmHg 35%
    04:00 +10°C° 0 mm 5 mps 735 mmHg 36%
    05:00 +9°C° 0 mm 5 mps 735 mmHg 36%
    06:00 +10°C° 0 mm 6 mps 735 mmHg 35%
    07:00 +11°C° 0 mm 7 mps 735 mmHg 34%
    08:00 +12°C° 0 mm 8 mps 735 mmHg 31%
    09:00 +15°C° 0 mm 8 mps 735 mmHg 27%
    10:00 +17°C° 0 mm 9 mps 735 mmHg 24%
    11:00 +19°C° 0 mm 9 mps 734 mmHg 20%
    12:00 +21°C° 0 mm 9 mps 734 mmHg 18%
    13:00 +22°C° 0 mm 9 mps 733 mmHg 17%
    14:00 +23°C° 0 mm 8 mps 732 mmHg 15%
    15:00 +22°C° 0 mm 7 mps 732 mmHg 16%
    16:00 +22°C° 0 mm 6 mps 732 mmHg 18%
    17:00 +21°C° 0 mm 5 mps 731 mmHg 20%
    18:00 +20°C° 0 mm 5 mps 731 mmHg 20%
    19:00 +17°C° 0 mm 5 mps 731 mmHg 21%
    20:00 +16°C° 0 mm 5 mps 731 mmHg 21%
    21:00 +16°C° 0 mm 5 mps 731 mmHg 21%
    22:00 +16°C° 0 mm 5 mps 731 mmHg 20%
    23:00 +15°C° 0 mm 6 mps 730 mmHg 20%

    Tomorrow, 23 August, Friday

    Time Temperature Precipitation Wind Pressure Humidity
    00:00 +15°C° 0 mm 6 mps 730 mmHg 20%
    01:00 +15°C° 0 mm 6 mps 729 mmHg 20%
    02:00 +14°C° 0 mm 7 mps 729 mmHg 20%
    03:00 +14°C° 0 mm 6 mps 729 mmHg 21%
    04:00 +13°C° 0 mm 6 mps 729 mmHg 22%
    05:00 +13°C° 0 mm 6 mps 729 mmHg 24%
    06:00 +14°C° 0 mm 7 mps 729 mmHg 37%
    07:00 +13°C° 0 mm 8 mps 730 mmHg 51%
    08:00 +14°C° 0 mm 10 mps 730 mmHg 64%
    09:00 +13°C° 0 mm 9 mps 730 mmHg 65%
    10:00 +13°C° 0 mm 8 mps 730 mmHg 66%
    11:00 +13°C° 0 mm 8 mps 731 mmHg 67%
    12:00 +15°C° 0 mm 8 mps 730 mmHg 60%
    13:00 +15°C° 0 mm 8 mps 730 mmHg 52%
    14:00 +16°C° 0 mm 8 mps 730 mmHg 45%
    15:00 +16°C° 0 mm 8 mps 730 mmHg 43%
    16:00 +15°C° 0 mm 7 mps 731 mmHg 40%
    17:00 +15°C° 0 mm 7 mps 732 mmHg 38%
    18:00 +14°C° 0 mm 6 mps 732 mmHg 43%
    19:00 +13°C° 0 mm 6 mps 733 mmHg 48%
    20:00 +11°C° 0 mm 6 mps 733 mmHg 54%
    21:00 +11°C° 0 mm 6 mps 734 mmHg 54%
    22:00 +10°C° 0 mm 5 mps 734 mmHg 55%
    23:00 +9°C° 0 mm 5 mps 735 mmHg 56%

    Day after tomorrow, 24 August, Saturday

    Time Temperature Precipitation Wind Pressure Humidity
    00:00 +8°C° 0 mm 5 mps 735 mmHg 61%
    01:00 +7°C° 0 mm 4 mps 734 mmHg 67%
    02:00 +6°C° 0 mm 4 mps 734 mmHg 72%
    03:00 +6°C° 0 mm 4 mps 735 mmHg 76%
    04:00 +5°C° 0 mm 4 mps 735 mmHg 79%
    05:00 +5°C° 0 mm 4 mps 736 mmHg 83%
    06:00 +6°C° 0 mm 4 mps 736 mmHg 81%
    07:00 +6°C° 0 mm 4 mps 736 mmHg 79%
    08:00 +7°C° 0 mm 5 mps 736 mmHg 78%
    09:00 +8°C° 0 mm 5 mps 737 mmHg 69%
    10:00 +10°C° 0 mm 5 mps 737 mmHg 60%
    11:00 +13°C° 0 mm 5 mps 737 mmHg 52%
    12:00 +13°C° 0 mm 5 mps 736 mmHg 47%
    13:00 +14°C° 0 mm 5 mps 735 mmHg 42%
    14:00 +15°C° 0 mm 4 mps 735 mmHg 37%
    15:00 +15°C° 0 mm 4 mps 735 mmHg 37%
    16:00 +15°C° 0 mm 4 mps 735 mmHg 36%
    17:00 +15°C° 0 mm 4 mps 735 mmHg 35%
    18:00 +14°C° 0 mm 4 mps 736 mmHg 37%
    19:00 +13°C° 0 mm 3 mps 736 mmHg 40%
    20:00 +12°C° 0 mm 3 mps 736 mmHg 42%
    21:00 +11°C° 0 mm 3 mps 736 mmHg 46%
    22:00 +11°C° 0 mm 3 mps 737 mmHg 50%
    23:00 +10°C° 0 mm 4 mps 737 mmHg 54%

    25 August, Sunday

    Time Temperature Precipitation Wind Pressure Humidity
    00:00 +10°C° 0 mm 4 mps 737 mmHg 59%
    01:00 +8°C° 0 mm 5 mps 736 mmHg 64%
    02:00 +7°C° 0 mm 5 mps 736 mmHg 68%
    03:00 +7°C° 0 mm 5 mps 736 mmHg 72%
    04:00 +6°C° 0 mm 5 mps 736 mmHg 76%
    05:00 +6°C° 0 mm 5 mps 735 mmHg 79%
    06:00 +5°C° 0 mm 6 mps 736 mmHg 75%
    07:00 +7°C° 0 mm 6 mps 736 mmHg 72%
    08:00 +8°C° 0 mm 6 mps 737 mmHg 68%
    09:00 +9°C° 0 mm 6 mps 737 mmHg 61%
    10:00 +11°C° 0 mm 6 mps 737 mmHg 53%
    11:00 +14°C° 0 mm 6 mps 737 mmHg 46%
    12:00 +14°C° 0 mm 5 mps 736 mmHg 43%
    13:00 +15°C° 0 mm 5 mps 735 mmHg 40%
    14:00 +15°C° 0 mm 4 mps 734 mmHg 37%
    15:00 +15°C° 0 mm 4 mps 734 mmHg 37%
    16:00 +15°C° 0 mm 4 mps 734 mmHg 38%
    17:00 +15°C° 0 mm 4 mps 734 mmHg 38%
    18:00 +14°C° 0 mm 4 mps 735 mmHg 40%
    19:00 +13°C° 0 mm 4 mps 735 mmHg 43%
    20:00 +12°C° 0 mm 4 mps 735 mmHg 45%
    21:00 +12°C° 0 mm 4 mps 735 mmHg 45%
    22:00 +10°C° 0 mm 5 mps 735 mmHg 46%
    23:00 +10°C° 0 mm 5 mps 735 mmHg 46%

    26 August, Monday

    Time Temperature Precipitation Wind Pressure Humidity
    00:00 +9°C° 0 mm 5 mps 735 mmHg 47%
    01:00 +8°C° 0 mm 4 mps 735 mmHg 49%
    02:00 +8°C° 0 mm 4 mps 735 mmHg 51%
    03:00 +7°C° 0 mm 4 mps 735 mmHg 54%
    04:00 +7°C° 0 mm 4 mps 735 mmHg 57%
    05:00 +6°C° 0 mm 4 mps 735 mmHg 60%
    06:00 +7°C° 0 mm 4 mps 736 mmHg 60%
    07:00 +8°C° 0 mm 5 mps 736 mmHg 59%
    08:00 +8°C° 0 mm 5 mps 737 mmHg 59%
    09:00 +10°C° 0 mm 5 mps 737 mmHg 52%
    10:00 +13°C° 0 mm 5 mps 736 mmHg 44%
    11:00 +15°C° 0 mm 5 mps 736 mmHg 37%
    12:00 +15°C° 0 mm 4 mps 736 mmHg 34%
    13:00 +17°C° 0 mm 4 mps 735 mmHg 32%
    14:00 +18°C° 0 mm 4 mps 734 mmHg 29%
    15:00 +17°C° 0 mm 4 mps 734 mmHg 30%
    16:00 +17°C° 0 mm 4 mps 734 mmHg 31%
    17:00 +17°C° 0 mm 4 mps 735 mmHg 31%
    18:00 +15°C° 0 mm 4 mps 735 mmHg 34%
    19:00 +14°C° 0 mm 4 mps 735 mmHg 37%
    20:00 +13°C° 0 mm 4 mps 736 mmHg 39%
    21:00 +12°C° 0 mm 4 mps 735 mmHg 41%
    22:00 +12°C° 0 mm 4 mps 735 mmHg 43%
    23:00 +11°C° 0 mm 4 mps 735 mmHg 45%

    27 August, Tuesday

    Time Temperature Precipitation Wind Pressure Humidity
    00:00 +10°C° 0 mm 4 mps 735 mmHg 47%
    01:00 +10°C° 0 mm 4 mps 735 mmHg 48%
    02:00 +10°C° 0 mm 4 mps 735 mmHg 50%
    03:00 +8°C° 0 mm 4 mps 735 mmHg 51%
    04:00 +8°C° 0 mm 4 mps 734 mmHg 52%
    05:00 +7°C° 0 mm 4 mps 734 mmHg 53%
    06:00 +8°C° 0 mm 5 mps 734 mmHg 50%
    07:00 +9°C° 0 mm 6 mps 735 mmHg 47%
    08:00 +10°C° 0 mm 7 mps 735 mmHg 44%
    09:00 +12°C° 0 mm 7 mps 734 mmHg 39%
    10:00 +15°C° 0 mm 7 mps 734 mmHg 35%
    11:00 +17°C° 0 mm 7 mps 734 mmHg 31%
    12:00 +18°C° 0 mm 7 mps 733 mmHg 29%
    13:00 +20°C° 0 mm 6 mps 732 mmHg 27%
    14:00 +21°C° 0 mm 5 mps 732 mmHg 25%
    15:00 +21°C° 0 mm 5 mps 731 mmHg 27%
    16:00 +21°C° 0 mm 4 mps 731 mmHg 29%
    17:00 +21°C° 0 mm 3 mps 731 mmHg 32%
    18:00 +20°C° 0 mm 3 mps 731 mmHg 33%
    19:00 +19°C° 0 mm 3 mps 731 mmHg 34%
    20:00 +18°C° 0 mm 4 mps 731 mmHg 35%
    21:00 +17°C° 0 mm 4 mps 730 mmHg 37%
    22:00 +17°C° 0 mm 4 mps 730 mmHg 38%
    23:00 +15°C° 0 mm 5 mps 729 mmHg 39%
    Show more